Maryland Science Center, MD

1:06 AM EST on December 15, 2019 (GMT -0500)
Maryland Science Center

Weather History for KDMH - October, 2019

Change the Weather History Date:

Monday, October 14, 2019

  Actual Average Record
Temperature  
Mean Temperature 65 °F 60 °F  
Max Temperature 77 °F 69 °F 81 °F (2008)
Min Temperature 53 °F 52 °F 48 °F (2002)
Degree Days  
Heating Degree Days 0 6  
Month to date heating degree days 16 57  
Since 1 July heating degree days 16 75  
Cooling Degree Days 0 1  
Month to date cooling degree days 57 29  
Year to date cooling degree days 2046 1654  
Growing Degree Days 14 (Base 50)    
Moisture  
Dew Point 44 °F    
Average Humidity 57    
Maximum Humidity 89    
Minimum Humidity 25    
Precipitation  
Precipitation 0.00 in 0.11 in 1.33 in (2003)
Month to date precipitation 0.18 1.52  
Year to date precipitation 31.05 32.98  
Sea Level Pressure  
Sea Level Pressure 30.01 in    
Wind  
Wind Speed - (North)    
Max Wind Speed -    
Max Gust Speed -    
T = Trace of Precipitation, MM = Missing Value Source: NWS Daily Summary

Daily Weather History Graph

Daily Weather History Graph

Search for Another Location

Airport or City:

Astronomy

Oct. 14, 2019 Rise Set
Actual Time 7:14 AM EDT 6:29 PM EDT
Civil Twilight 6:47 AM EDT 6:56 PM EDT
Nautical Twilight 6:16 AM EDT 7:27 PM EDT
Astronomical Twilight 5:45 AM EDT 7:58 PM EDT
Moon 7:18 PM EDT (10/14) 7:44 AM EDT (10/14)
Length of Visible Light 12h 08m
Length of Day
11h 14m
Waxing Gibbous, 99% of the Moon is Illuminated
Oct 14
Waxing Gibbous
Oct 21
Last Quarter
Oct 27
New
Nov 4
First Quarter
Nov 12
Full

Hourly Weather History & Observations

Time (EDT) Temp. Dew Point Humidity Pressure Visibility Wind Dir Wind Speed Gust Speed Precip Events Conditions
1:54 AM 60.1 °F 55.0 °F 83% 29.99 in - North - - N/A   Unknown
2:54 AM 57.9 °F 54.0 °F 87% 29.97 in - North - - N/A   Unknown
4:54 AM 55.0 °F 51.1 °F 86% 29.98 in - North - - N/A   Unknown
5:54 AM 55.0 °F 51.1 °F 86% 29.99 in - North - - N/A   Unknown
6:54 AM 54.0 °F 50.0 °F 86% 30.01 in - North - - N/A   Unknown
7:54 AM 54.0 °F 50.0 °F 86% 30.02 in - North - - N/A   Unknown
8:54 AM 57.9 °F 51.1 °F 78% 30.04 in - North - - N/A   Unknown
9:54 AM 64.0 °F 51.1 °F 63% 30.05 in - North - - N/A   Unknown
11:54 AM 70.0 °F 42.1 °F 36% 30.03 in - North - - N/A   Unknown
12:54 PM 72.0 °F 37.9 °F 29% 30.02 in - North - - N/A   Unknown
1:54 PM 73.0 °F 37.9 °F 28% 29.99 in - North - - N/A   Unknown
2:54 PM 75.0 °F 37.0 °F 25% 29.96 in - North - - N/A   Unknown
3:54 PM 75.0 °F 37.0 °F 25% 29.96 in - North - - N/A   Unknown
4:54 PM 73.9 °F 36.0 °F 25% 29.96 in - North - - N/A   Unknown
5:54 PM 73.0 °F 37.9 °F 28% 29.97 in - North - - N/A   Unknown
6:54 PM 71.1 °F 39.9 °F 32% 29.98 in - North - - N/A   Unknown
7:54 PM 66.9 °F 41.0 °F 39% 30.01 in - North - - N/A   Unknown
8:54 PM 66.0 °F 42.1 °F 42% 30.02 in - North - - N/A   Unknown
9:54 PM 66.0 °F 42.1 °F 42% 30.04 in - North - - N/A   Unknown
10:54 PM 64.9 °F 39.0 °F 39% 30.06 in - North - - N/A   Unknown
11:54 PM 62.1 °F 39.9 °F 44% 30.07 in - North - - N/A   Unknown